Location: Saint-Restitut
(44.3351°N, 4.7915°E)
Time: 12:35:49
(UTC+00:00)

Cosmos 2322 Rocket - Pass Details

Date: 03 February 2023
Orbit: 832 x 851 km, 71.0° (Epoch: 20 March)

Event Time Altitude Azimuth Distance (km) Brightness Sun altitude
Rises 18:13:24 0° 208° (SSW) 3,363 5.9 -14.7°
Reaches altitude 10° 18:15:50 10° 209° (SSW) 2,433 5.1 -15.1°
Maximum altitude 18:21:24 77° 296° (WNW) 858 2.3 -16.1°
Drops below altitude 10° 18:27:02 10° 23° (NNE) 2,452 4.3 -17.1°
Enters shadow 18:28:12 - 24° (NNE) 2,897 4.7 -17.3°
